Location: Beaver Brook Trail
(44.0290°N, 71.8137°W)
Time: 00:07:59
(UTC+00:00)

Altair - Pass Details

Date: 11 November 2024
Orbit: 1501 x 1683 km, 47.2° (Epoch: 03 December)

Event Time Altitude Azimuth Distance (km) Brightness Sun altitude
Rises 21:44:37 0° 294° (WNW) 4,639 10.8 -4.2°
Reaches altitude 10° 21:47:41 10° 290° (WNW) 3,661 10.3 -4.7°
Maximum altitude 21:56:32 55° 216° (SW) 1,784 8.3 -6.2°
Drops below altitude 10° 22:05:37 10° 142° (SE) 3,744 9.3 -7.8°
Sets 22:08:48 0° 138° (SE) 4,751 9.8 -8.3°
